Wind_Speed
5 5 4 4 3 3 4 4 5 6 6 5 5 5 4 4 3 3 4 4 4 4 5 5 6 6 7 8 9 9 10 11 11 11 12 12 12 12 12 12 13 13 13 13 13 13 13 13 13
5 5 4 3 3 4 3 3 4 5 5 4 4 3 3 3 2 3 3 4 4 5 6 7 8 8 9 9 10 10 11 11 11 11 12 12 12 12 12 12 12 12 12 12 12 13 13 13 14
5 4 4 3 3 2 0 1 2 3 3 2 2 1 2 3 3 4 5 6 7 7 8 9 10 10 10 11 11 11 11 11 12 12 12 12 12 12 12 12 12 12 12 12 13 13 14 14 14
5 4 4 4 4 4 4 4 3 1 1 2 2 3 5 5 5 6 8 9 10 10 10 11 11 12 12 12 12 12 12 12 12 12 12 12 12 12 12 12 12 12 13 13 14 14 14 15 15
5 5 5 5 6 6 5 5 5 4 4 5 5 6 8 9 8 8 10 11 12 12 12 12 13 13 13 13 13 13 12 12 12 13 13 13 12 12 12 13 13 13 13 14 14 14 15 15 16
5 6 6 7 7 7 5 6 6 6 6 7 8 9 11 12 11 10 11 13 14 14 14 13 14 13 13 13 13 13 13 13 13 13 13 13 13 13 12 12 13 13 13 13 14 14 15 16 16
6 6 7 7 8 7 7 7 7 7 8 8 9 10 13 14 13 12 12 14 15 15 15 14 14 14 14 14 14 14 14 14 14 13 13 13 13 12 12 12 12 13 13 14 14 15 15 16 17
7 8 8 7 8 8 8 8 9 9 9 9 8 9 12 14 14 13 12 13 14 15 15 15 14 15 15 15 15 15 14 14 14 14 14 14 13 13 13 13 13 14 14 14 15 16 16 17 18
8 9 9 8 9 9 9 9 10 11 11 9 7 9 11 13 14 13 12 13 14 15 16 16 15 16 16 16 16 15 15 15 15 15 15 15 15 15 15 15 15 16 16 16 17 18 18 19 20
10 10 10 10 10 11 11 11 10 12 13 12 9 10 12 14 14 14 13 13 14 15 16 17 17 17 16 17 17 17 17 17 17 17 17 17 17 17 17 18 18 18 19 19 20 21 21 22 23
12 12 12 12 12 12 12 13 12 12 14 13 12 12 14 15 16 15 15 15 15 16 17 18 18 17 18 18 18 19 19 19 19 19 19 20 20 20 20 21 21 22 22 23 23 24 25 26 27
14 15 14 14 14 14 14 14 15 15 14 14 14 13 14 16 17 17 17 17 17 17 19 19 19 19 20 20 21 21 21 22 22 22 22 23 23 23 24 24 25 25 26 27 27 28 29 30 31
17 17 17 17 17 16 16 16 17 17 16 15 15 14 15 16 18 19 19 19 18 19 19 20 21 21 22 22 23 24 25 25 26 26 26 27 27 28 28 28 29 30 30 31 31 32 33 34 35
19 18 19 18 18 18 18 20 19 18 16 17 17 16 16 16 18 19 20 20 20 20 20 21 22 24 24 25 26 27 28 28 29 30 30 30 31 32 32 33 33 34 35 35 36 36 37 38 39
19 19 20 19 19 19 20 22 22 19 17 17 19 19 18 18 19 20 21 21 22 22 22 22 23 24 26 27 29 30 31 32 32 33 34 34 35 36 36 37 38 39 39 39 40 41 42 43 43
19 19 19 20 19 19 19 21 24 20 18 18 18 18 18 19 19 20 22 22 22 23 24 24 25 25 27 29 30 32 33 34 35 36 37 38 39 40 41 41 42 43 44 44 44 45 46 47 47
18 18 18 19 18 18 19 19 22 20 18 18 18 18 17 17 18 20 21 22 23 23 24 25 26 27 29 30 31 33 34 35 37 39 40 41 43 44 45 45 46 47 47 48 48 49 50 51 51
16 16 17 17 16 16 17 16 17 18 17 17 17 17 17 17 17 18 20 21 22 23 24 26 27 29 30 31 32 33 34 36 38 39 41 43 44 46 47 48 49 50 51 51 52 53 54 54 55
14 14 15 16 15 14 15 15 15 16 16 17 17 17 18 18 18 19 20 21 22 23 24 25 27 29 30 32 33 34 35 36 37 39 41 43 45 47 49 50 51 53 54 54 56 57 57 58 59
13 13 13 14 14 14 15 16 16 16 16 17 17 18 19 19 20 21 21 22 23 24 25 26 28 29 31 32 34 35 36 37 39 40 42 44 46 48 50 52 53 55 56 57 58 59 60 60 61
13 13 12 12 14 16 16 17 17 17 17 17 18 19 20 21 22 23 23 24 25 26 27 28 29 30 31 33 34 35 36 38 39 42 44 46 47 49 51 53 55 56 58 59 60 61 62 62 63
13 14 13 13 14 16 18 20 20 18 18 18 19 19 21 22 23 24 26 27 27 28 28 28 29 30 32 33 34 36 37 38 40 43 44 46 48 50 53 55 57 58 59 60 61 63 64 65 65
15 16 16 16 16 17 18 20 22 21 20 20 20 20 21 22 23 24 26 27 27 28 28 28 29 30 32 33 35 36 38 39 41 43 45 48 50 52 54 56 58 60 61 62 63 65 66 67 67
16 18 18 18 18 18 18 20 22 23 22 22 22 21 21 22 22 23 24 26 27 27 28 29 30 31 32 34 35 37 38 40 42 44 46 48 50 53 55 57 59 61 62 63 65 66 68 68 68
18 19 20 20 19 19 19 20 22 23 24 24 23 22 21 21 21 22 24 26 27 28 29 30 31 32 33 34 36 38 40 41 43 45 47 49 52 54 56 59 60 62 63 64 66 67 68 69 69
20 20 21 22 21 20 20 21 23 24 25 24 23 21 20 20 20 22 24 26 27 28 30 31 33 34 36 37 39 41 42 44 46 48 50 51 53 55 57 60 61 63 64 65 67 67 68 69 69
21 21 22 24 24 22 21 22 24 25 25 23 22 20 20 20 22 24 26 27 29 30 32 34 35 37 39 40 42 44 46 47 49 51 53 54 56 57 59 60 62 64 65 66 67 68 68 68 68
23 23 24 25 26 26 23 22 24 24 23 22 21 21 22 23 25 26 28 30 32 34 36 38 39 41 42 44 46 48 50 52 53 55 57 58 60 61 62 63 64 64 65 66 66 67 67 67 68
24 25 26 27 27 28 26 21 23 23 23 23 23 23 25 26 28 30 32 34 36 37 40 42 44 46 47 49 51 53 55 57 59 61 62 63 65 66 66 66 66 66 66 66 67 66 67 67 67
26 26 27 28 29 28 26 21 23 23 24 24 25 27 29 31 33 34 36 38 40 42 44 46 49 51 53 55 57 59 61 63 65 66 67 68 69 70 69 69 68 68 67 67 67 67 67 67 67
Wind_Direction
56 55 55 55 55 64 86 114 126 124 120 120 123 129 142 158 171 195 200 202 209 225 239 247 254 259 263 268 273 276 277 277 277 277 278 278 278 278 277 278 278 279 279 279 278 277 276 275 273
49 44 43 38 41 53 92 123 126 119 114 116 120 129 151 173 185 209 223 233 239 248 256 260 264 267 270 273 275 277 279 279 279 279 280 279 278 279 279 279 279 279 279 279 280 279 278 277 276
40 29 18 10 15 24 347 198 152 132 130 133 143 178 226 230 232 245 254 259 259 261 264 267 269 272 274 275 276 277 279 279 280 280 280 280 279 280 279 279 279 279 279 280 281 281 281 280 279
25 17 4 351 344 335 307 283 271 231 220 234 249 261 266 261 259 262 267 269 269 268 269 270 272 273 274 276 277 277 278 278 279 280 280 280 279 278 278 278 279 280 282 283 283 284 284 283 282
9 1 352 344 339 333 318 295 287 278 273 272 272 270 274 274 264 262 268 271 272 272 271 271 273 274 275 276 277 277 276 276 278 278 279 278 277 277 277 278 280 282 284 285 285 286 286 286 286
348 343 338 334 333 330 317 298 294 287 282 279 278 276 274 275 273 268 268 271 271 272 272 272 273 274 274 274 275 275 274 275 276 276 275 274 274 275 276 278 280 283 285 287 288 290 290 291 291
331 333 334 332 327 321 314 308 305 301 295 286 278 274 273 275 275 271 268 269 271 272 272 271 270 270 271 271 272 272 272 272 273 272 272 271 272 273 274 277 280 283 286 288 291 292 293 294 294
321 323 326 326 321 314 314 312 310 306 300 294 285 275 271 277 277 275 271 269 270 271 271 270 268 268 269 269 269 269 269 269 270 270 269 269 271 272 274 276 279 283 286 289 291 293 295 295 296
308 311 316 318 316 313 314 310 307 304 301 301 294 282 274 277 280 280 277 272 270 270 270 270 268 268 268 267 267 266 266 267 267 268 268 268 270 271 272 275 278 281 284 286 289 292 293 294 295
296 301 306 310 311 311 311 307 302 298 300 308 304 288 285 284 284 283 281 277 273 271 271 270 269 268 267 266 265 265 265 266 266 266 266 267 268 269 272 274 276 279 281 284 287 289 291 292 293
290 295 300 303 304 304 304 304 302 298 300 308 305 297 291 289 288 286 284 281 276 273 271 270 271 269 267 266 265 264 265 265 264 265 266 266 268 269 272 273 275 277 280 282 284 287 288 289 291
281 286 292 297 299 299 300 302 302 303 307 305 301 298 294 292 291 289 287 283 278 274 273 273 272 270 268 266 266 265 264 264 264 265 266 266 267 269 271 273 274 276 278 280 283 285 286 287 289
275 281 285 288 291 294 296 296 297 302 307 305 301 297 292 290 290 289 287 284 279 276 273 272 272 269 268 266 265 264 264 264 265 266 266 266 267 269 270 271 273 275 277 279 281 283 284 286 287
275 278 281 285 288 290 291 291 293 299 303 302 299 296 292 289 287 286 285 284 281 277 273 271 270 269 268 267 265 265 265 265 265 266 266 267 268 269 270 271 273 274 276 278 279 281 282 283 284
275 278 280 282 283 285 288 289 292 297 300 297 296 296 295 292 289 286 285 283 280 278 276 273 270 270 269 268 267 267 266 266 266 266 266 267 267 268 269 271 272 273 275 276 278 279 280 281 283
276 278 280 282 284 286 287 286 292 297 296 293 293 293 293 292 290 288 286 284 282 280 278 275 273 271 269 268 268 268 268 268 268 268 268 268 267 268 269 270 271 272 274 276 277 278 279 281 282
278 279 281 282 283 281 281 281 289 296 296 296 295 294 293 292 290 288 287 285 284 283 281 279 277 274 272 270 270 270 270 270 269 269 269 269 269 269 270 270 271 272 274 275 276 278 279 280 281
278 280 281 281 281 280 281 283 289 295 297 298 298 298 298 295 292 289 287 286 286 285 283 282 281 278 276 274 273 272 271 270 270 271 272 272 272 272 272 272 272 273 274 275 276 277 279 280 280
279 280 280 283 286 288 289 291 292 294 297 299 301 302 301 299 295 292 290 290 289 287 285 284 282 281 280 278 276 275 274 273 273 273 273 272 272 272 272 273 273 274 275 276 276 278 279 279 280
275 275 278 285 291 293 293 295 297 298 301 302 302 301 300 299 296 295 294 293 291 289 286 284 282 281 280 279 279 278 277 276 275 274 273 273 273 274 275 276 276 276 277 277 278 279 279 280 280
276 278 282 287 293 296 297 296 298 300 301 299 298 297 296 295 295 295 293 292 290 288 286 285 284 283 282 281 281 280 279 279 278 277 277 277 277 277 277 277 277 278 278 279 279 280 280 281 281
280 284 287 289 291 293 296 297 298 299 298 295 293 293 294 295 295 295 294 293 292 290 289 288 287 286 285 285 284 283 283 282 280 280 280 280 279 279 279 279 279 278 279 279 279 279 280 280 281
281 286 289 291 292 293 295 297 298 299 296 294 295 296 297 297 297 296 295 295 295 294 294 294 293 292 291 290 288 287 286 285 284 283 282 281 280 280 279 279 279 279 279 279 279 279 279 279 280
283 286 288 290 294 295 295 295 296 296 296 299 301 302 302 300 299 298 297 297 298 298 298 298 297 296 295 294 293 291 290 289 287 286 285 284 283 282 281 280 280 279 279 279 278 278 279 279 280
283 287 290 293 296 297 297 295 295 296 299 303 304 304 302 301 300 298 298 298 299 299 300 300 300 299 299 298 296 295 294 292 291 289 288 286 285 284 282 281 281 280 279 278 278 278 278 279 279
283 286 290 294 297 298 299 299 298 298 299 300 301 302 302 301 300 298 299 300 301 301 302 303 303 302 301 300 298 297 296 295 293 292 291 290 288 286 285 284 282 281 280 279 278 278 278 278 278
282 285 289 293 295 297 298 297 295 296 297 298 300 302 303 302 301 302 303 303 303 303 303 303 303 302 302 301 300 299 298 297 295 294 293 292 290 289 288 286 284 282 281 280 279 278 278 278 278
282 287 290 293 296 297 299 298 295 297 297 299 302 303 303 302 302 303 304 303 303 303 303 303 303 303 302 301 300 299 298 297 297 295 294 293 292 290 288 287 286 284 282 281 280 279 278 277 277
282 286 289 292 293 295 297 299 296 296 296 299 301 301 301 301 302 303 303 303 303 303 303 303 303 303 302 301 301 300 299 298 297 296 294 293 292 290 289 287 285 284 283 281 280 280 279 278 278
280 283 287 289 290 292 293 296 293 292 293 296 298 299 300 301 302 303 303 303 303 303 303 304 303 303 302 301 300 300 299 298 297 296 294 293 292 290 289 287 285 284 283 281 280 280 279 278 278
Height
5875 5874 5874 5875 5875 5874 5873 5873 5872 5872 5872 5872 5873 5873 5874 5875 5875 5877 5876 5875 5875 5875 5875 5875 5875 5875 5874 5874 5874 5874 5874 5873 5873 5873 5873 5873 5872 5872 5872 5871 5871 5870 5870 5870 5870 5870 5870 5870 5870
5876 5875 5876 5876 5875 5875 5875 5873 5872 5872 5872 5872 5873 5873 5873 5874 5874 5874 5874 5874 5874 5874 5874 5874 5874 5873 5873 5872 5872 5872 5871 5871 5871 5871 5870 5870 5870 5870 5869 5869 5868 5868 5868 5867 5867 5867 5867 5867 5867
5876 5876 5877 5876 5875 5875 5875 5874 5873 5872 5872 5872 5872 5873 5873 5873 5873 5873 5873 5873 5873 5873 5873 5872 5872 5871 5871 5871 5870 5870 5869 5869 5869 5868 5868 5868 5867 5867 5867 5866 5866 5865 5865 5865 5864 5864 5864 5863 5863
5877 5877 5877 5876 5875 5875 5875 5874 5873 5872 5871 5871 5872 5872 5871 5872 5873 5872 5872 5871 5871 5871 5870 5870 5870 5869 5869 5868 5868 5867 5867 5867 5866 5866 5865 5865 5865 5864 5864 5864 5863 5863 5862 5862 5861 5861 5860 5860 5860
5877 5877 5876 5875 5874 5874 5874 5873 5872 5871 5870 5870 5870 5870 5870 5870 5870 5870 5869 5869 5868 5868 5868 5867 5867 5866 5866 5865 5865 5864 5864 5864 5864 5863 5863 5862 5862 5861 5861 5861 5860 5860 5859 5859 5858 5858 5857 5856 5856
5877 5876 5876 5874 5873 5873 5872 5871 5870 5869 5868 5868 5868 5868 5868 5867 5867 5867 5867 5866 5865 5865 5865 5864 5864 5863 5863 5862 5862 5862 5861 5861 5861 5860 5860 5859 5859 5859 5858 5858 5857 5856 5856 5855 5855 5854 5853 5853 5852
5877 5876 5874 5873 5872 5871 5871 5869 5868 5867 5866 5866 5865 5865 5864 5863 5864 5864 5864 5863 5862 5861 5861 5861 5860 5860 5860 5859 5859 5859 5858 5858 5858 5857 5857 5856 5856 5855 5855 5854 5854 5853 5852 5852 5851 5850 5849 5849 5848
5875 5875 5873 5872 5871 5870 5869 5867 5866 5865 5864 5863 5863 5862 5861 5860 5860 5860 5860 5860 5859 5858 5857 5857 5857 5856 5856 5856 5855 5855 5855 5855 5854 5854 5854 5853 5853 5852 5852 5851 5850 5850 5849 5848 5847 5846 5845 5844 5843
5874 5874 5872 5871 5869 5868 5866 5865 5864 5863 5861 5861 5860 5859 5858 5857 5856 5856 5856 5856 5855 5854 5853 5853 5853 5852 5852 5852 5852 5852 5851 5851 5851 5850 5850 5850 5849 5848 5848 5847 5846 5846 5845 5844 5843 5842 5841 5840 5839
5872 5871 5870 5869 5867 5866 5864 5863 5862 5860 5859 5858 5857 5856 5855 5854 5853 5853 5852 5852 5852 5851 5850 5849 5849 5848 5848 5848 5848 5848 5847 5847 5847 5846 5846 5845 5845 5844 5844 5843 5842 5841 5840 5839 5838 5837 5836 5835 5833
5869 5868 5867 5866 5865 5863 5862 5860 5859 5858 5856 5855 5854 5853 5851 5850 5849 5849 5848 5848 5848 5847 5846 5845 5844 5844 5844 5844 5844 5843 5843 5842 5842 5842 5841 5841 5840 5839 5839 5838 5837 5836 5835 5834 5833 5832 5830 5829 5827
5866 5865 5864 5863 5862 5860 5859 5857 5856 5854 5854 5852 5851 5850 5848 5846 5845 5844 5844 5843 5843 5843 5841 5840 5840 5840 5839 5839 5839 5838 5838 5837 5837 5836 5836 5835 5835 5834 5833 5832 5831 5830 5829 5828 5827 5825 5824 5822 5821
5863 5862 5861 5860 5859 5857 5856 5854 5853 5851 5850 5848 5847 5846 5844 5843 5841 5840 5839 5839 5838 5838 5837 5836 5835 5834 5834 5834 5833 5833 5832 5832 5831 5831 5830 5829 5828 5828 5827 5826 5825 5823 5822 5821 5820 5818 5816 5815 5813
5859 5858 5857 5856 5855 5853 5852 5849 5849 5848 5847 5845 5843 5842 5841 5839 5837 5836 5834 5833 5832 5832 5831 5831 5830 5829 5828 5828 5827 5827 5826 5826 5825 5824 5823 5823 5822 5821 5820 5818 5817 5816 5814 5813 5812 5810 5808 5806 5805
5854 5854 5852 5851 5850 5849 5848 5845 5843 5844 5843 5841 5839 5837 5836 5834 5832 5831 5829 5828 5827 5826 5825 5825 5824 5823 5822 5821 5820 5820 5819 5819 5818 5817 5816 5815 5814 5813 5812 5811 5809 5807 5806 5805 5803 5801 5799 5797 5795
5850 5849 5848 5847 5846 5844 5845 5841 5838 5839 5838 5837 5835 5833 5831 5829 5827 5825 5824 5822 5821 5820 5818 5818 5817 5817 5816 5815 5814 5813 5812 5811 5810 5809 5808 5807 5806 5804 5803 5802 5800 5798 5796 5795 5793 5791 5790 5787 5785
5845 5844 5843 5842 5841 5840 5839 5838 5834 5833 5833 5831 5830 5828 5827 5825 5823 5821 5819 5817 5815 5814 5812 5811 5810 5809 5809 5808 5807 5806 5805 5804 5802 5801 5799 5798 5796 5795 5793 5792 5790 5788 5786 5785 5783 5781 5778 5776 5774
5840 5839 5838 5837 5837 5836 5834 5833 5831 5829 5828 5826 5825 5823 5822 5820 5819 5816 5814 5812 5810 5808 5806 5804 5803 5801 5800 5800 5799 5798 5797 5796 5794 5792 5791 5789 5787 5785 5783 5782 5780 5777 5776 5774 5771 5769 5766 5764 5761
5835 5835 5834 5833 5832 5831 5829 5828 5827 5825 5824 5822 5820 5818 5817 5815 5813 5811 5809 5806 5804 5802 5800 5798 5796 5794 5793 5791 5790 5789 5788 5787 5786 5784 5782 5780 5777 5775 5772 5771 5768 5766 5764 5762 5759 5757 5754 5751 5747
5831 5831 5830 5829 5827 5826 5825 5823 5822 5821 5819 5817 5815 5813 5812 5809 5807 5805 5803 5800 5798 5796 5794 5792 5790 5788 5785 5784 5782 5781 5779 5778 5776 5774 5771 5769 5766 5764 5762 5760 5757 5754 5752 5749 5747 5743 5740 5738 5734
5827 5827 5826 5825 5823 5822 5821 5819 5818 5816 5815 5813 5811 5808 5806 5803 5801 5799 5796 5794 5792 5789 5787 5785 5783 5781 5778 5776 5774 5772 5770 5768 5766 5763 5760 5758 5755 5753 5750 5747 5744 5742 5739 5736 5733 5729 5726 5723 5720
5823 5822 5821 5821 5820 5818 5816 5814 5812 5811 5810 5808 5806 5803 5800 5797 5795 5792 5789 5786 5784 5782 5780 5777 5775 5773 5770 5768 5765 5763 5760 5758 5755 5753 5750 5747 5744 5741 5738 5734 5731 5728 5725 5722 5718 5714 5711 5707 5705
5818 5817 5817 5816 5815 5813 5811 5809 5807 5805 5803 5802 5799 5797 5794 5791 5788 5784 5781 5778 5776 5773 5771 5769 5767 5764 5761 5759 5756 5753 5751 5748 5745 5742 5739 5735 5732 5728 5725 5721 5717 5714 5710 5707 5703 5699 5695 5691 5688
5814 5813 5812 5811 5809 5809 5806 5804 5801 5798 5796 5794 5792 5789 5787 5783 5780 5777 5774 5771 5768 5766 5763 5761 5758 5755 5753 5750 5747 5743 5740 5737 5734 5730 5726 5723 5719 5715 5711 5706 5702 5698 5695 5691 5687 5682 5678 5675 5672
5809 5808 5806 5805 5804 5803 5800 5798 5795 5792 5789 5787 5785 5782 5780 5777 5774 5771 5768 5765 5762 5759 5756 5753 5750 5747 5744 5740 5737 5733 5730 5726 5722 5718 5714 5710 5705 5701 5696 5691 5687 5683 5678 5674 5670 5665 5661 5657 5654
5803 5802 5801 5799 5798 5796 5794 5791 5789 5785 5783 5781 5778 5776 5773 5770 5767 5764 5761 5758 5755 5752 5748 5745 5742 5738 5734 5731 5727 5723 5719 5714 5710 5705 5701 5696 5691 5686 5681 5675 5671 5666 5661 5656 5652 5647 5644 5639 5636
5797 5796 5795 5793 5790 5789 5788 5785 5782 5779 5776 5774 5772 5769 5766 5764 5761 5758 5755 5751 5748 5744 5740 5737 5733 5729 5725 5721 5716 5711 5707 5702 5697 5692 5686 5681 5676 5670 5664 5659 5653 5648 5643 5638 5633 5629 5625 5621 5617
5791 5790 5788 5786 5783 5781 5781 5779 5775 5772 5769 5767 5765 5762 5760 5757 5754 5751 5747 5744 5740 5736 5732 5728 5724 5719 5715 5710 5705 5700 5694 5689 5683 5677 5671 5665 5659 5653 5647 5641 5635 5629 5624 5618 5613 5610 5606 5602 5599
5785 5783 5781 5778 5777 5775 5773 5774 5769 5765 5762 5760 5758 5755 5753 5750 5747 5743 5739 5735 5731 5726 5722 5718 5713 5708 5703 5698 5692 5686 5680 5674 5668 5662 5655 5648 5642 5635 5628 5622 5616 5610 5605 5599 5594 5590 5586 5582 5579
5778 5776 5774 5772 5770 5767 5765 5769 5762 5759 5756 5754 5751 5748 5745 5742 5738 5734 5730 5725 5721 5716 5711 5706 5701 5695 5690 5684 5678 5672 5665 5658 5651 5644 5637 5629 5622 5615 5608 5602 5596 5590 5585 5579 5574 5570 5566 5562 5559